EW3154 Weather Reports


Display with metric or nautical units.
time (UTC)temp
F
wind
direction
speed
MPH
gust
MPH
rain 1hr
in
rain 24hr
in
rain mn
in
humidity
%
barometer
mb
20190120044632 27 234 0.0 0.0 0.00 0.10 0.00 96 1016.0
20190120043130 27 234 0.0 0.0 0.00 0.10 0.00 96 1016.1
20190120041636 27 234 0.0 0.0 0.00 0.10 0.00 96 1016.2
20190120040112 27 234 0.0 0.0 0.00 0.10 0.00 96 1016.2
20190120034635 27 234 0.0 0.0 0.00 0.10 0.00 96 1016.2
20190120033154 27 234 0.0 0.0 0.00 0.10 0.00 96 1016.4
20190120031642 27 234 0.0 0.0 0.00 0.10 0.00 96 1016.6
20190120030056 27 234 0.0 0.0 0.00 0.10 0.00 96 1016.7
20190120024612 27 234 0.0 0.0 0.00 0.10 0.00 96 1016.8
20190120023053 27 234 0.0 0.0 0.00 0.10 0.00 96 1016.7
20190120021600 27 234 0.0 0.0 0.00 0.10 0.00 96 1016.8
20190120020059 27 234 0.0 0.0 0.00 0.10 0.00 96 1016.8
20190120014539 28 234 0.0 0.0 0.00 0.10 0.00 96 1017.0
20190120013106 28 234 0.0 0.0 0.00 0.10 0.00 96 1017.2
20190120011606 28 234 0.0 0.0 0.00 0.10 0.00 96 1017.2
20190120010049 28 234 0.0 0.0 0.00 0.10 0.00 96 1017.2
20190120004557 28 234 0.0 0.0 0.00 0.10 0.00 96 1017.1
20190120003104 28 234 0.0 0.0 0.00 0.10 0.00 96 1017.0
20190120001548 28 234 0.0 0.0 0.00 0.10 0.00 96 1017.1
20190120000109 28 234 0.0 0.0 0.00 0.10 0.00 96 1017.2
20190119234632 28 234 0.0 0.0 0.00 0.10 0.00 96 1017.3
20190119233027 28 234 0.0 0.0 0.00 0.10 0.00 96 1017.4
20190119231537 29 234 0.0 0.0 0.00 0.10 0.00 96 1017.6
20190119230032 29 234 0.0 0.0 0.00 0.10 0.00 96 1017.7
20190119224520 29 234 0.0 0.0 0.00 0.10 0.10 96 1017.8
20190119223059 29 234 0.0 0.0 0.00 0.10 0.10 96 1017.9
20190119221614 29 234 0.0 0.0 0.00 0.10 0.10 96 1018.0
20190119214512 29 234 0.0 0.0 0.00 0.10 0.10 96 1017.8
20190119213014 29 234 0.0 0.0 0.00 0.10 0.10 97 1017.7
20190119211512 29 234 0.0 0.0 0.00 0.10 0.10 97 1017.9
20190119210014 29 234 0.0 0.0 0.00 0.10 0.10 97 1018.1
20190119204514 29 234 0.0 0.0 0.00 0.11 0.10 97 1018.1
20190119203017 29 234 0.0 0.0 0.00 0.11 0.10 97 1018.1
20190119201516 29 234 0.0 0.0 0.00 0.11 0.10 96 1018.1
20190119200013 29 234 0.0 0.0 0.00 0.11 0.10 96 1018.2
20190119194536 29 234 0.0 0.0 0.00 0.11 0.10 96 1018.1
20190119193031 29 234 0.0 0.0 0.00 0.11 0.10 96 1018.1
20190119191535 29 234 0.0 0.0 0.00 0.11 0.10 96 1018.1
20190119190006 29 234 0.0 0.0 0.00 0.11 0.10 96 1018.1
20190119184505 29 234 0.0 0.0 0.00 0.11 0.10 96 1018.1
20190119183257 29 234 0.0 0.0 0.00 0.11 0.10 96 1018.2
20190119181646 29 234 0.0 0.0 0.00 0.11 0.10 96 1018.3
20190119180144 29 234 0.0 0.0 0.00 0.11 0.10 96 1018.3
20190119174706 29 234 0.0 0.0 0.00 0.12 0.10 96 1018.3
20190119173232 30 234 0.0 0.0 0.00 0.12 0.10 96 1018.3
20190119171718 30 234 0.0 0.0 0.00 0.12 0.10 95 1018.3
20190119170136 30 234 0.0 0.0 0.00 0.12 0.10 95 1018.2
20190119164658 30 234 0.0 0.0 0.01 0.12 0.10 95 1018.2
20190119163238 30 234 0.0 0.0 0.01 0.12 0.10 95 1018.2
20190119161738 30 234 0.0 0.0 0.01 0.12 0.10 95 1018.4
20190119160231 30 234 0.0 0.0 0.02 0.12 0.10 95 1018.5
20190119154728 30 146 0.0 0.0 0.01 0.12 0.09 94 1018.6
20190119153120 30 146 0.0 0.0 0.01 0.12 0.09 93 1018.6
20190119151714 30 146 0.0 0.0 0.02 0.12 0.09 93 1018.6
20190119150135 30 146 0.0 0.0 0.01 0.11 0.09 93 1018.6
20190119144606 30 146 0.0 0.0 0.02 0.11 0.09 93 1018.8
20190119143140 30 146 0.0 0.0 0.02 0.11 0.09 93 1018.9
20190119141642 30 146 0.0 0.0 0.02 0.10 0.08 93 1018.9
20190119140322 30 146 0.0 0.0 0.02 0.10 0.08 93 1019.0
20190119134652 30 146 0.0 0.0 0.02 0.10 0.07 92 1019.0
20190119133146 31 251 0.0 0.0 0.02 0.10 0.07 91 1019.0
20190119131702 31 251 0.0 0.0 0.02 0.09 0.06 91 1019.1
20190119130137 31 251 0.0 0.0 0.02 0.09 0.06 91 1019.2
20190119124630 31 251 0.0 0.0 0.02 0.09 0.06 91 1019.4
20190119123111 31 251 0.0 0.0 0.02 0.09 0.06 92 1019.4
20190119121626 31 251 0.0 0.0 0.02 0.08 0.05 93 1019.5
20190119120133 31 251 0.0 0.0 0.02 0.07 0.04 93 1019.7
20190119114636 31 251 0.0 0.0 0.03 0.08 0.04 93 1019.8
20190119113214 31 242 0.0 0.0 0.03 0.07 0.03 94 1020.0
20190119111617 31 217 0.0 0.0 0.02 0.06 0.02 94 1020.2
20190119110050 31 180 0.0 0.0 0.01 0.05 0.01 95 1020.5
20190119104536 31 242 0.0 0.0 0.01 0.05 0.01 95 1020.6
20190119103045 31 242 0.0 0.0 0.00 0.04 0.00 96 1020.7
20190119101604 31 242 0.0 0.0 0.00 0.04 0.00 97 1020.8
20190119100033 31 242 0.0 0.0 0.00 0.04 0.00 97 1020.9
20190119094635 31 242 0.0 0.0 0.00 0.05 0.00 97 1021.1
20190119093029 30 242 0.0 0.0 0.00 0.05 0.00 97 1021.0
20190119091611 30 242 0.0 0.0 0.00 0.05 0.00 97 1020.9
20190119090049 30 181 0.0 0.0 0.00 0.05 0.00 97 1020.8
20190119084552 30 181 0.0 0.0 0.00 0.05 0.00 97 1020.7
20190119083023 30 181 0.0 0.0 0.00 0.05 0.00 97 1020.7
20190119081532 30 243 0.0 0.0 0.00 0.05 0.00 97 1020.7
20190119080055 30 71 0.0 0.0 0.00 0.05 0.00 97 1020.6
20190119074518 30 71 0.0 0.0 0.00 0.06 0.00 97 1020.5
20190119073021 29 71 0.0 0.0 0.00 0.06 0.00 97 1020.4
20190119071517 29 71 0.0 0.0 0.00 0.06 0.00 97 1020.4
20190119070023 29 71 0.0 0.0 0.00 0.06 0.00 97 1020.3
20190119064513 30 71 0.0 0.0 0.00 0.06 0.00 97 1020.3
20190119063024 30 71 0.0 0.0 0.00 0.06 0.00 97 1020.2
20190119061516 30 71 0.0 0.0 0.00 0.06 0.00 97 1020.3
20190119060019 30 71 0.0 0.0 0.00 0.06 0.00 97 1020.3
20190119054512 30 25 0.0 0.0 0.00 0.06 0.00 97 1020.3
20190119053011 30 25 0.0 0.0 0.00 0.06 0.00 97 1020.2
20190119051508 30 25 0.0 0.0 0.00 0.06 0.00 97 1020.1
20190119050049 30 25 0.0 0.0 0.00 0.06 0.00 97 1020.1